Location: Grand Canyon Star Party (South Rim)
(36.0641°N, 112.1172°W)
Time: 04:54:13
(UTC-07:00)

N. Korean satellite - Visible Passes

Search period start: 20 February 2018 00:00
Search period end: 02 March 2018 00:00
Orbit: 459 x 514 km, 97.2° (Epoch: 20 February)

Date Brightness Start Highest point End Pass type
(mag) Time Alt. Az. Time Alt. Az. Time Alt. Az.
20 Feb 8.8 06:38:18 10° NNE 06:41:39 33° E 06:45:01 10° SSE visible
20 Feb 7.8 18:45:03 10° S 18:48:20 44° W 18:51:39 10° NNW visible
21 Feb 10.1 06:15:24 10° NE 06:17:49 17° E 06:20:15 10° SE visible
22 Feb 10.5 19:34:00 10° W 19:34:32 10° W 19:35:04 10° W visible
23 Feb 9.4 19:07:56 10° SSW 19:10:37 21° W 19:13:22 10° NW visible
24 Feb 8.9 06:36:49 10° NNE 06:40:11 32° E 06:43:33 10° SSE visible
24 Feb 7.7 18:43:29 10° S 18:46:48 47° W 18:50:10 10° NNW visible
25 Feb 10.1 06:13:56 10° NE 06:16:20 16° E 06:18:43 10° SE visible
26 Feb 10.4 19:32:04 10° WSW 19:32:59 11° W 19:33:55 10° WNW visible
27 Feb 9.4 19:06:18 10° SSW 19:09:04 22° W 19:11:53 10° NW visible
28 Feb 7.7 18:41:52 10° S 18:45:14 49° W 18:48:39 10° NNW visible
01 Mar 10.2 06:12:26 10° NE 06:14:47 16° E 06:17:08 10° SE visible
